Temp
64 64 63 63 63 63 62 62 61 61 62 62 62 61 61 61 61 61 62 62 62 63 63 63 63 62 65 63 67 74 70 71 71 69 67 65 62 61 57 60 60 56 59 62 62 62 61
63 63 62 61 62 62 62 61 61 61 61 61 61 61 60 60 60 61 61 61 62 62 62 63 62 61 64 57 74 75 73 70 71 68 67 66 63 63 58 57 56 62 59 58 60 61 62
62 62 61 62 61 61 61 60 60 60 60 60 60 60 60 60 60 60 60 61 61 62 62 62 62 65 61 64 75 74 72 70 71 70 65 67 66 60 61 57 62 58 51 57 62 61 58
61 61 61 61 61 60 60 60 59 60 60 60 60 59 59 59 59 59 59 60 60 61 61 61 62 66 60 70 75 70 73 69 71 70 68 67 66 61 58 62 58 53 55 51 62 61 60
61 61 60 60 60 60 60 59 59 59 59 59 59 59 59 58 59 59 59 59 60 62 61 62 63 62 61 66 64 72 73 67 67 67 67 67 63 59 59 51 53 54 48 52 55 60 58
60 60 59 59 59 59 59 59 59 59 59 59 58 58 58 58 58 58 58 59 62 61 65 68 67 57 64 62 67 69 72 69 64 62 59 58 58 53 56 52 45 41 50 53 52 59 60
60 59 59 59 59 58 58 58 58 58 58 58 58 57 57 57 58 58 59 68 63 61 62 65 69 65 67 66 69 65 68 65 63 59 53 56 50 48 57 60 59 55 51 50 56 61 53
59 59 58 58 58 58 58 58 58 58 58 58 57 56 57 57 57 57 61 64 59 59 54 68 67 63 65 67 59 62 67 58 56 51 58 51 47 59 58 56 53 52 49 50 57 56 55
58 58 58 58 57 57 57 57 57 58 57 57 56 56 56 57 57 62 63 58 65 65 54 62 60 60 60 63 59 61 62 60 56 54 55 49 57 56 53 53 50 52 50 51 50 54 57
58 58 57 57 57 57 57 57 57 57 57 56 56 56 57 56 59 62 59 62 65 64 49 56 56 58 61 62 55 64 64 60 56 52 56 54 59 53 51 50 53 47 55 52 49 47 41
57 57 57 57 56 56 56 57 57 57 56 56 55 56 56 56 59 60 58 63 64 60 34 57 56 66 62 57 57 56 65 58 51 55 51 52 53 50 49 52 54 50 52 50 49 45 45
57 57 56 56 56 56 56 56 56 56 56 55 55 55 56 61 64 60 63 63 60 46 33 46 57 55 57 57 57 56 56 59 58 51 54 52 60 52 53 54 53 55 50 51 50 45 35
56 56 56 56 56 56 56 56 56 56 55 55 55 55 58 64 55 62 62 59 45 38 57 48 48 54 54 54 54 53 52 51 48 42 46 54 53 53 52 48 53 49 47 38 35 33 37
56 56 56 56 56 55 55 56 56 55 55 54 54 53 58 63 62 61 60 54 37 47 46 52 50 52 49 52 53 52 50 50 53 49 45 42 39 48 52 49 47 50 48 38 29 34 38
56 56 56 55 55 55 55 55 55 55 54 54 54 64 63 61 61 60 56 42 41 42 44 43 49 48 49 50 50 51 51 46 47 48 40 41 43 52 51 53 51 47 42 50 40 44 35
56 56 56 55 55 55 55 55 55 55 54 54 58 60 59 61 60 58 52 42 44 45 45 46 40 47 42 46 44 47 47 43 42 47 49 45 36 51 51 51 52 49 52 40 41 29 30
55 56 55 55 54 54 54 54 55 55 54 54 58 56 59 60 59 57 44 41 43 48 46 41 40 40 43 42 42 43 45 40 43 42 48 45 42 42 50 47 47 46 43 45 45 43 33
55 55 55 55 54 54 54 54 54 54 53 56 55 51 60 60 51 51 42 40 43 43 45 43 43 38 36 39 38 41 40 38 42 42 38 44 39 34 41 52 54 49 46 47 38 37 41
55 55 55 54 54 54 53 54 53 54 53 53 51 51 59 59 42 43 43 41 41 39 39 38 37 38 39 36 32 39 38 41 42 39 36 40 37 30 36 44 46 43 46 46 46 44 36
54 54 54 54 54 53 53 53 52 53 53 54 52 45 50 50 47 41 38 37 37 41 39 39 38 39 36 34 38 34 35 40 41 40 40 40 35 34 28 37 43 37 42 45 42 33 36
54 54 54 54 53 53 53 53 52 52 53 54 48 40 39 38 41 40 40 38 34 32 39 40 37 35 32 28 32 33 35 36 39 41 39 38 28 33 35 37 38 36 37 39 37 39 34
54 54 54 53 53 53 52 52 52 52 53 49 43 39 44 42 40 39 38 35 32 32 33 33 32 33 34 29 32 28 32 32 31 37 36 38 26 30 26 34 35 32 36 37 38 39 39
53 53 53 53 53 52 52 52 52 51 53 46 47 46 40 38 40 37 35 34 32 35 37 37 35 33 31 34 37 37 37 37 35 32 31 30 27 26 22 33 31 26 36 37 38 41 41
52 52 52 53 52 52 52 52 52 51 51 49 45 44 39 37 38 35 35 35 33 34 31 36 37 34 39 44 41 40 40 38 38 36 38 30 29 27 21 27 17 36 43 42 37 36 37
52 52 52 52 52 52 52 52 52 52 50 49 49 44 38 32 37 36 36 35 37 38 35 35 37 41 44 38 31 28 31 33 34 36 36 36 29 23 20 22 30 33 38 35 31 32 35
51 51 52 52 51 51 52 51 52 51 51 49 45 48 40 32 36 40 35 36 33 33 34 36 43 45 40 34 30 21 20 26 24 28 36 35 34 25 23 16 14 32 39 42 42 26 40
51 51 51 51 51 51 51 51 51 52 50 48 45 48 38 31 40 38 34 32 36 34 30 34 35 35 40 30 25 23 22 30 21 22 25 25 27 22 22 19 24 36 40 42 22 27 38
51 51 51 51 51 51 51 51 51 51 50 48 47 49 41 33 37 41 42 36 36 36 29 35 31 33 30 23 24 24 23 26 24 27 24 22 19 19 22 17 13 40 38 26 34 39 39
51 51 51 51 50 50 50 50 51 51 50 49 43 50 48 36 37 45 45 46 44 42 36 36 32 33 33 26 28 27 23 26 23 16 31 20 25 22 23 23 36 39 36 40 41 39 40
MSLP
1024.71 1024.51 1024.37 1024.15 1023.91 1023.55 1023.23 1022.95 1022.61 1022.16 1021.64 1021.21 1020.77 1020.39 1019.96 1019.49 1018.96 1018.40 1017.90 1017.39 1016.84 1016.43 1016.20 1016.13 1016.11 1016.03 1015.63 1014.34 1012.37 1012.48 1013.02 1013.33 1013.53 1013.62 1013.27 1013.01 1012.61 1012.33 1011.80 1011.52 1011.38 1010.85 1010.17 1009.72 1009.39 1009.09 1008.85
1025.10 1024.92 1024.76 1024.54 1024.22 1023.85 1023.43 1023.09 1022.75 1022.27 1021.75 1021.25 1020.81 1020.38 1019.92 1019.39 1018.82 1018.23 1017.60 1017.06 1016.55 1016.17 1015.95 1015.85 1015.92 1016.02 1015.31 1013.54 1012.18 1012.48 1012.82 1013.31 1013.11 1013.27 1013.11 1013.08 1012.75 1012.88 1012.42 1011.86 1011.59 1010.40 1010.22 1009.50 1008.96 1008.48 1008.20
1025.50 1025.32 1025.11 1024.71 1024.49 1024.11 1023.68 1023.31 1022.90 1022.44 1021.88 1021.38 1020.85 1020.35 1019.87 1019.30 1018.66 1018.03 1017.40 1016.80 1016.21 1015.74 1015.58 1015.63 1015.69 1015.50 1014.59 1012.87 1012.21 1012.56 1012.92 1013.00 1013.19 1013.06 1012.84 1013.13 1013.17 1013.03 1012.41 1011.52 1011.06 1010.88 1010.04 1008.84 1007.68 1007.84 1007.87
1025.82 1025.58 1025.31 1025.02 1024.70 1024.30 1023.91 1023.48 1023.04 1022.54 1021.96 1021.44 1020.89 1020.32 1019.75 1019.15 1018.50 1017.81 1017.16 1016.54 1016.02 1015.45 1015.37 1015.52 1015.60 1015.02 1013.20 1012.63 1012.46 1012.72 1012.63 1012.88 1013.14 1013.20 1013.14 1013.31 1013.42 1013.08 1012.59 1011.64 1010.85 1010.32 1009.53 1007.81 1006.88 1007.12 1007.40
1026.14 1025.86 1025.61 1025.29 1024.94 1024.57 1024.10 1023.64 1023.16 1022.66 1022.07 1021.50 1020.94 1020.32 1019.67 1018.98 1018.29 1017.57 1016.87 1016.29 1015.75 1015.32 1015.29 1015.38 1015.13 1014.53 1012.58 1012.95 1012.49 1012.14 1012.24 1012.31 1012.83 1013.06 1013.15 1013.23 1013.29 1012.49 1011.86 1011.30 1009.75 1009.11 1008.00 1007.14 1006.52 1007.03 1007.20
1026.40 1026.16 1025.88 1025.53 1025.13 1024.75 1024.28 1023.79 1023.24 1022.66 1022.04 1021.46 1020.87 1020.20 1019.46 1018.81 1018.13 1017.42 1016.53 1015.70 1015.22 1015.36 1014.89 1014.67 1014.35 1014.24 1012.43 1011.87 1011.87 1011.88 1012.25 1012.50 1012.58 1012.82 1013.00 1013.05 1012.52 1011.75 1010.85 1010.24 1008.59 1008.28 1007.55 1006.76 1006.29 1006.14 1005.95
1026.76 1026.47 1026.17 1025.79 1025.36 1024.95 1024.43 1023.88 1023.28 1022.59 1021.95 1021.30 1020.63 1019.91 1019.12 1018.39 1017.80 1017.18 1016.43 1015.15 1015.27 1014.85 1014.20 1012.42 1011.36 1011.10 1011.22 1011.97 1011.99 1012.02 1012.25 1012.46 1012.47 1012.44 1011.85 1011.92 1011.64 1010.03 1008.92 1008.48 1008.23 1008.13 1007.70 1006.73 1006.09 1005.70 1006.11
1027.10 1026.78 1026.46 1026.03 1025.62 1025.22 1024.66 1024.01 1023.32 1022.64 1021.91 1021.15 1020.41 1019.66 1018.72 1017.88 1017.33 1016.86 1016.36 1015.36 1016.18 1016.37 1013.86 1011.38 1010.97 1011.29 1011.49 1011.58 1011.46 1011.71 1012.21 1012.10 1011.97 1011.34 1010.90 1011.42 1009.95 1008.83 1008.84 1008.88 1008.73 1008.25 1007.48 1006.50 1005.68 1006.02 1005.86
1027.37 1027.08 1026.70 1026.29 1025.86 1025.40 1024.87 1024.21 1023.44 1022.67 1021.91 1021.12 1020.24 1019.34 1018.41 1017.52 1017.01 1016.36 1016.24 1016.77 1016.60 1016.13 1014.53 1011.30 1011.61 1011.40 1011.58 1011.88 1011.08 1010.98 1011.98 1011.56 1011.14 1010.60 1010.28 1010.08 1008.47 1009.04 1009.09 1008.62 1008.39 1007.77 1007.17 1006.45 1006.25 1005.94 1005.08
1027.67 1027.38 1026.98 1026.61 1026.14 1025.62 1025.08 1024.42 1023.62 1022.77 1021.98 1021.15 1020.13 1019.18 1018.19 1017.05 1016.89 1016.49 1016.42 1017.01 1016.57 1016.28 1014.42 1011.46 1011.33 1011.45 1011.62 1011.48 1011.41 1011.58 1011.53 1011.45 1010.95 1010.32 1009.76 1009.19 1008.44 1008.79 1008.83 1008.38 1008.21 1007.32 1007.15 1007.08 1006.88 1006.49 1005.37
1027.99 1027.71 1027.34 1026.88 1026.38 1025.73 1025.15 1024.55 1023.82 1022.90 1022.00 1021.12 1020.22 1019.23 1018.56 1017.77 1017.21 1016.55 1017.42 1017.01 1016.58 1016.21 1013.95 1011.38 1011.33 1011.52 1011.36 1011.34 1011.36 1011.61 1011.75 1011.69 1010.78 1010.12 1010.53 1008.46 1008.50 1008.81 1008.61 1007.99 1007.86 1007.42 1007.80 1007.55 1007.11 1006.67 1005.94
1028.22 1027.92 1027.53 1027.07 1026.59 1025.94 1025.30 1024.62 1023.80 1022.91 1022.00 1021.04 1020.19 1019.53 1018.67 1017.92 1017.38 1017.84 1017.38 1016.99 1016.52 1015.54 1012.93 1011.45 1011.29 1011.23 1010.76 1010.83 1010.93 1011.44 1011.63 1011.90 1011.19 1010.64 1009.74 1008.84 1008.82 1009.16 1008.41 1008.29 1008.20 1007.88 1007.78 1006.99 1006.82 1006.71 1005.64
1028.49 1028.17 1027.76 1027.32 1026.84 1026.17 1025.46 1024.63 1023.78 1022.97 1022.04 1021.06 1020.16 1019.64 1019.07 1018.27 1018.18 1017.86 1017.44 1016.44 1015.59 1014.19 1011.99 1012.51 1012.23 1011.83 1011.35 1010.58 1010.59 1011.09 1010.95 1010.92 1010.81 1010.40 1009.28 1008.34 1008.03 1008.61 1009.03 1008.48 1008.12 1008.22 1007.70 1006.59 1006.25 1006.20 1004.57
1028.70 1028.40 1028.04 1027.57 1026.95 1026.30 1025.65 1024.91 1023.90 1022.98 1021.98 1020.90 1020.11 1019.60 1019.06 1018.72 1018.62 1018.15 1017.46 1016.18 1015.56 1014.40 1014.29 1014.12 1013.40 1012.34 1011.62 1011.47 1010.83 1010.97 1010.93 1010.61 1011.00 1011.14 1010.16 1008.88 1008.33 1008.58 1008.89 1008.56 1008.02 1007.50 1007.52 1006.98 1005.93 1005.15 1004.36
1029.12 1028.79 1028.36 1027.85 1027.23 1026.53 1025.79 1025.01 1024.03 1022.94 1021.71 1020.57 1019.55 1018.78 1018.38 1018.62 1018.49 1017.96 1016.92 1016.19 1016.05 1016.61 1016.62 1015.64 1014.06 1012.70 1011.82 1012.13 1012.05 1011.29 1011.09 1011.93 1012.39 1012.38 1011.81 1010.08 1008.71 1008.88 1008.84 1008.66 1008.54 1007.59 1007.47 1007.29 1006.74 1005.70 1005.21
1029.46 1029.06 1028.68 1028.17 1027.57 1026.87 1026.00 1025.05 1024.11 1022.93 1021.46 1020.59 1019.61 1018.62 1018.54 1018.78 1018.48 1017.85 1016.61 1016.51 1017.02 1017.86 1017.54 1016.64 1015.49 1014.39 1013.62 1013.20 1013.32 1012.57 1012.49 1013.93 1014.09 1013.88 1013.47 1011.78 1010.45 1009.12 1008.88 1008.96 1008.35 1008.02 1007.98 1007.40 1006.98 1005.91 1004.24
1029.66 1029.20 1028.95 1028.57 1028.04 1027.27 1026.39 1025.47 1024.28 1022.91 1021.82 1020.70 1019.89 1018.57 1019.03 1018.64 1018.17 1017.28 1017.39 1018.33 1018.67 1018.95 1018.95 1017.92 1017.12 1016.54 1015.60 1015.25 1015.19 1014.46 1013.82 1015.58 1015.77 1015.28 1014.30 1013.37 1011.76 1010.22 1009.26 1008.53 1007.71 1007.94 1007.78 1007.70 1007.23 1006.13 1004.86
1029.73 1029.40 1029.08 1028.67 1028.23 1027.64 1026.93 1026.10 1025.12 1023.86 1022.29 1020.78 1019.98 1018.76 1019.37 1018.67 1018.11 1018.40 1019.05 1020.21 1020.92 1020.42 1020.26 1019.51 1018.89 1018.68 1018.26 1017.64 1016.82 1015.99 1015.80 1016.92 1017.48 1016.94 1015.78 1014.75 1013.50 1011.24 1009.56 1008.46 1008.10 1008.22 1007.77 1007.48 1006.98 1006.15 1005.36
1029.98 1029.73 1029.38 1028.97 1028.44 1027.90 1027.31 1026.37 1025.47 1024.55 1023.60 1022.18 1020.85 1020.30 1019.99 1018.89 1019.39 1019.68 1020.55 1020.82 1021.28 1021.38 1021.56 1021.13 1020.55 1020.43 1020.02 1019.35 1018.64 1017.55 1017.72 1018.16 1018.28 1018.17 1017.48 1016.50 1014.32 1012.44 1010.02 1009.16 1009.14 1008.75 1008.30 1008.19 1007.91 1007.37 1006.19
1030.32 1030.07 1029.67 1029.24 1028.83 1028.39 1027.77 1027.03 1026.18 1024.93 1023.82 1022.72 1021.70 1021.07 1021.13 1021.15 1021.82 1021.59 1021.68 1021.68 1021.76 1022.25 1022.16 1022.44 1021.98 1021.68 1021.20 1020.46 1019.93 1019.11 1018.93 1018.78 1019.01 1018.85 1018.48 1017.79 1015.92 1014.27 1012.40 1010.61 1009.78 1009.89 1009.40 1009.09 1008.87 1008.08 1006.90
1030.49 1030.25 1029.98 1029.56 1029.17 1028.79 1028.18 1027.61 1026.97 1025.73 1024.38 1023.14 1023.16 1023.97 1024.54 1022.85 1022.60 1022.88 1022.76 1023.23 1022.89 1023.13 1022.58 1022.55 1022.25 1022.47 1022.61 1021.81 1020.97 1019.96 1020.06 1019.85 1019.47 1019.00 1018.63 1018.06 1016.54 1015.24 1013.91 1012.92 1012.13 1011.24 1010.34 1009.81 1009.24 1008.26 1008.03
1030.70 1030.54 1030.31 1029.86 1029.49 1029.17 1028.69 1028.14 1027.49 1026.66 1025.25 1024.66 1025.04 1025.68 1025.03 1024.23 1024.20 1023.60 1023.28 1023.54 1024.00 1024.29 1024.04 1022.82 1022.99 1023.10 1023.12 1022.58 1022.11 1021.38 1021.26 1021.00 1020.18 1019.46 1019.02 1018.79 1017.65 1016.47 1014.88 1013.84 1012.80 1011.46 1010.74 1010.16 1009.32 1008.52 1008.32
1031.03 1030.83 1030.57 1030.22 1029.88 1029.48 1029.17 1028.67 1028.06 1027.71 1026.40 1026.16 1026.75 1026.97 1026.82 1025.48 1024.67 1024.37 1024.62 1024.73 1024.87 1024.89 1024.32 1024.06 1023.71 1023.42 1022.93 1022.71 1022.59 1022.30 1021.87 1021.19 1020.55 1020.14 1019.75 1019.58 1018.69 1017.45 1015.03 1013.87 1013.23 1011.48 1009.87 1009.70 1009.14 1008.71 1008.51
1031.18 1030.97 1030.77 1030.35 1030.14 1029.77 1029.49 1028.99 1028.62 1028.30 1028.18 1027.73 1027.95 1027.45 1026.44 1025.08 1024.94 1024.87 1025.27 1025.46 1025.30 1025.20 1025.06 1024.45 1023.99 1023.43 1022.87 1022.83 1022.56 1021.30 1019.84 1019.22 1019.16 1019.07 1019.30 1019.03 1018.84 1018.29 1016.23 1015.11 1012.74 1010.42 1010.34 1009.97 1009.78 1010.08 1010.23
1031.34 1031.18 1030.83 1030.44 1030.16 1029.90 1029.61 1029.33 1028.99 1028.78 1028.66 1028.31 1028.30 1027.79 1027.53 1026.56 1026.04 1025.49 1025.16 1025.32 1025.08 1024.71 1024.51 1024.35 1024.16 1023.70 1023.33 1022.98 1021.57 1020.10 1018.44 1017.71 1018.03 1018.29 1018.34 1018.70 1018.97 1018.28 1016.73 1014.92 1012.45 1011.18 1010.75 1011.16 1011.22 1011.16 1011.79
1031.36 1031.16 1030.96 1030.65 1030.24 1029.95 1029.71 1029.43 1029.13 1028.86 1028.70 1028.50 1028.69 1028.49 1028.18 1027.62 1025.64 1025.68 1025.50 1025.31 1024.77 1024.14 1024.01 1023.89 1023.58 1023.45 1023.55 1022.70 1021.69 1020.39 1019.18 1018.85 1018.57 1018.52 1018.41 1018.59 1018.81 1018.61 1017.25 1015.78 1013.85 1011.75 1011.78 1012.39 1011.63 1011.01 1011.52
1031.44 1031.24 1030.95 1030.65 1030.24 1029.94 1029.75 1029.53 1029.16 1028.75 1028.56 1028.49 1028.22 1028.28 1028.63 1028.01 1026.71 1026.68 1025.79 1025.42 1025.62 1024.77 1024.15 1024.00 1023.87 1023.54 1023.08 1022.47 1021.64 1020.83 1019.83 1019.65 1019.17 1018.64 1018.42 1018.66 1018.36 1017.79 1016.91 1015.77 1014.13 1013.37 1013.08 1012.88 1012.33 1012.19 1012.39
1031.34 1031.01 1030.85 1030.65 1030.34 1030.00 1029.77 1029.48 1029.08 1028.73 1028.50 1028.48 1027.74 1027.86 1028.16 1027.06 1026.66 1026.31 1025.99 1025.43 1025.07 1024.72 1024.13 1023.79 1024.04 1023.16 1023.47 1022.80 1021.90 1021.25 1020.47 1020.03 1019.63 1019.34 1019.30 1019.13 1018.72 1018.08 1017.39 1016.02 1014.13 1013.74 1013.49 1013.78 1013.40 1012.56 1012.06
1031.23 1030.94 1030.77 1030.62 1030.24 1029.95 1029.59 1029.38 1028.98 1028.61 1028.32 1028.34 1027.84 1027.50 1027.84 1028.10 1026.30 1026.04 1025.40 1024.88 1024.82 1024.67 1024.47 1024.19 1023.89 1023.38 1023.14 1022.80 1022.07 1021.48 1020.95 1020.39 1020.16 1018.93 1019.40 1018.90 1019.11 1017.99 1017.93 1016.27 1015.06 1013.93 1013.54 1013.52 1013.37 1012.90 1012.22
Wind_Speed
12 13 14 15 16 16 16 16 17 18 18 18 18 19 19 19 19 19 19 18 17 15 13 10 8 7 7 7 8 11 10 8 6 5 6 4 5 4 6 6 8 15 13 11 14 18 19
14 16 15 15 15 16 17 17 17 18 18 19 19 19 20 20 20 20 20 19 18 17 13 8 6 5 7 8 4 10 9 7 6 7 4 5 3 4 8 7 8 9 13 20 16 16 14
15 15 14 15 16 16 16 17 18 19 19 20 21 21 21 22 21 21 20 20 19 16 9 6 5 6 8 10 1 8 8 6 4 5 5 2 2 5 7 9 5 11 16 15 14 5 10
13 14 14 15 16 17 18 18 19 20 20 21 22 22 23 23 23 23 22 20 19 11 3 4 5 6 8 3 4 8 9 6 4 3 3 1 2 7 6 7 7 7 8 7 4 6 4
14 14 15 17 17 18 19 20 20 21 22 22 23 23 24 24 24 24 23 22 14 3 2 7 6 5 6 4 6 11 11 6 6 4 3 3 4 7 5 7 10 8 9 14 10 5 6
14 14 15 16 17 19 20 21 21 22 23 23 24 24 25 24 24 24 24 20 3 4 6 6 4 5 6 2 5 5 8 6 5 4 5 6 6 8 9 7 6 6 15 15 15 5 15
14 15 16 17 18 19 20 21 22 23 23 24 24 25 25 25 24 22 15 4 5 6 6 9 12 16 7 4 5 6 6 8 6 6 9 9 8 11 13 11 13 14 14 18 16 10 9
14 15 16 17 19 20 21 22 23 23 24 26 27 27 25 24 21 20 8 5 6 5 12 13 13 12 5 3 5 8 7 9 7 11 9 6 12 13 4 7 9 13 15 17 13 4 11
14 15 17 18 19 20 22 23 24 25 25 27 28 27 24 23 17 7 6 8 7 7 8 5 1 2 1 8 7 6 10 5 10 13 12 14 9 1 6 10 11 14 15 16 15 16 17
14 16 17 18 20 21 22 23 25 26 27 28 28 24 21 22 6 4 3 7 6 4 6 3 3 3 2 2 5 0 9 4 4 6 7 12 6 6 10 13 10 16 5 7 10 10 5
15 16 17 19 20 21 23 24 25 27 27 27 28 23 19 13 6 2 7 8 6 5 6 4 3 2 1 5 1 5 4 4 10 10 3 7 5 7 13 11 5 6 5 10 11 11 10
14 16 17 19 20 22 24 25 26 27 27 27 25 20 22 3 2 6 9 8 4 3 9 2 2 3 5 4 3 3 4 4 4 8 12 20 10 6 11 7 8 10 13 15 8 5 5
14 16 17 19 21 23 24 26 27 28 29 28 23 15 9 5 6 12 10 5 4 5 5 5 6 10 13 6 3 3 4 7 5 7 8 9 10 3 5 8 7 5 10 5 5 4 4
14 16 18 20 22 24 26 27 28 30 30 29 22 11 1 4 10 8 5 5 6 6 7 10 11 16 6 8 0 3 4 6 5 8 10 8 5 4 6 4 6 8 6 6 6 5 8
14 16 18 21 23 25 27 28 29 30 28 26 18 2 3 10 8 5 6 3 5 7 7 12 18 9 2 1 8 5 1 5 5 10 5 7 6 3 4 5 4 4 6 3 6 7 5
15 16 19 21 23 25 28 30 31 31 31 22 4 3 5 15 7 5 5 0 0 6 8 7 7 4 10 12 10 11 10 6 7 9 7 5 9 5 2 3 9 8 6 5 5 5 8
14 17 18 20 22 24 27 30 32 33 31 17 4 3 9 15 3 5 2 3 3 7 10 6 7 10 12 12 10 11 4 5 11 12 9 8 7 8 7 7 10 6 5 7 6 8 7
13 15 16 19 21 23 26 28 31 32 32 6 4 3 9 11 2 2 4 5 7 8 10 4 5 5 6 9 10 9 6 6 11 11 8 5 7 11 18 17 11 9 15 16 11 9 8
13 14 16 18 20 22 25 27 30 30 23 6 4 3 7 8 4 5 3 2 5 10 9 7 6 6 6 5 7 5 6 3 8 12 9 9 5 9 8 5 3 4 1 8 9 9 14
11 14 15 18 19 21 23 27 29 31 23 4 4 4 4 6 4 6 6 4 6 5 5 5 6 2 11 6 3 9 13 5 16 13 11 7 8 14 15 18 19 16 18 15 15 11 13
11 12 14 16 18 20 22 24 26 31 24 5 6 5 3 5 6 7 6 6 6 8 4 3 4 8 9 6 15 7 6 16 11 14 4 5 9 13 17 20 21 22 23 23 23 24 22
11 12 13 15 17 17 19 22 24 27 21 6 5 5 4 3 6 8 3 5 7 8 5 2 7 11 11 11 13 18 18 17 11 7 9 9 7 15 20 21 22 24 22 24 25 26 27
9 12 12 13 14 15 17 17 18 20 17 5 4 2 4 3 6 7 5 7 7 10 2 4 8 13 12 12 12 16 19 21 21 21 19 16 8 8 7 6 14 14 6 13 17 21 20
9 10 12 13 13 15 15 16 16 12 11 5 4 3 3 4 5 5 7 9 8 11 13 15 14 13 9 14 17 20 22 22 22 19 16 14 12 8 9 11 11 4 14 10 9 4 7
9 10 11 11 13 14 14 14 15 14 6 4 2 3 3 6 10 7 10 11 11 11 11 11 13 12 14 14 11 11 8 8 4 4 7 13 11 7 8 11 20 17 8 7 9 10 1
7 10 10 12 12 11 14 14 14 12 11 4 3 3 2 4 1 12 11 13 12 11 13 12 11 9 7 9 8 10 9 14 5 8 0 5 10 9 13 16 16 4 9 9 18 18 8
9 10 10 11 13 12 14 13 13 13 15 3 3 5 2 4 6 6 11 15 9 9 9 12 6 9 9 6 10 12 13 13 10 12 9 8 9 14 15 18 19 18 18 19 18 10 21
10 10 11 12 11 13 13 14 13 13 11 5 4 4 3 3 10 15 16 14 12 12 12 12 8 2 6 6 6 8 9 11 14 16 15 15 13 14 16 20 26 14 14 15 20 23 26
9 11 12 13 14 14 14 13 14 14 13 8 4 1 3 5 10 18 21 20 20 19 14 8 9 15 5 6 6 7 10 12 17 17 16 15 15 15 16 16 25 29 26 25 23 22 22
Wind_Direction
46 44 34 22 18 13 11 7 3 358 356 352 349 346 343 339 335 333 329 326 320 314 304 296 295 302 279 232 254 134 152 155 178 204 242 266 275 311 272 289 289 254 273 286 288 286 280
45 34 25 20 13 12 11 6 1 356 352 349 346 342 339 336 333 330 327 325 319 312 298 279 277 284 249 246 83 152 164 165 212 213 222 252 318 325 282 266 267 318 296 291 289 280 280
37 29 20 19 15 11 8 3 359 355 351 347 344 341 337 335 332 329 326 324 320 315 291 260 233 234 253 265 90 157 173 206 200 244 254 255 281 265 341 269 294 284 296 295 262 265 292
37 28 23 18 13 10 6 2 357 352 350 346 343 339 335 332 329 327 324 321 317 311 278 198 209 221 256 86 188 190 188 179 189 205 272 261 259 278 254 310 268 269 274 284 145 235 259
35 30 23 18 12 7 3 360 355 351 348 345 341 337 333 330 327 325 322 319 305 323 153 160 188 239 271 134 204 211 198 211 189 201 217 193 252 265 230 261 277 189 286 308 315 183 287
36 30 23 16 11 5 2 358 353 350 348 344 339 336 331 327 324 323 320 305 187 195 171 203 260 241 195 252 147 171 195 209 205 184 229 230 236 256 227 238 268 295 289 297 295 295 283
35 28 21 15 9 4 1 357 352 349 346 342 339 334 328 324 323 321 325 266 225 199 216 244 277 258 284 97 154 185 171 182 206 226 237 185 258 242 277 281 270 290 285 286 293 333 307
32 27 20 15 9 3 360 355 352 349 345 342 337 333 326 323 323 319 291 326 31 342 297 291 271 278 267 230 218 182 183 202 206 231 206 229 252 273 303 278 269 270 277 283 298 186 308
33 25 20 14 8 3 358 354 351 348 345 342 338 333 330 325 323 303 16 32 336 326 267 276 55 308 29 220 229 196 196 215 239 254 238 250 268 328 252 264 259 263 270 282 292 319 282
32 25 20 14 8 3 358 354 351 347 345 343 339 334 335 324 288 342 83 339 324 318 279 206 129 106 165 268 208 352 213 258 232 280 287 266 279 284 260 261 267 282 342 307 293 312 309
31 24 18 13 7 3 359 355 351 348 346 343 340 334 337 349 327 23 339 318 311 252 311 62 81 65 212 254 76 154 192 220 263 262 241 259 259 257 265 277 253 268 326 290 295 289 297
31 24 17 13 8 4 359 355 353 350 346 343 341 334 326 287 298 9 326 307 260 237 248 49 76 347 306 187 186 123 206 223 302 281 250 260 265 268 261 305 247 296 290 271 262 264 241
31 23 17 12 8 5 1 356 353 351 347 342 339 333 334 326 338 323 315 257 241 222 49 24 347 340 323 285 241 224 224 227 261 299 284 306 241 192 259 263 204 233 274 291 226 205 268
33 24 17 11 8 5 2 357 354 352 346 342 334 317 16 8 328 316 290 246 253 24 5 353 336 310 279 355 161 291 276 273 82 324 287 282 280 187 160 265 321 282 288 272 291 300 308
28 25 19 12 8 5 1 358 355 350 348 345 321 231 340 349 331 299 267 257 357 12 343 332 316 296 271 209 331 314 271 10 31 7 309 321 267 145 197 281 276 98 224 6 293 273 266
26 21 20 15 11 6 2 358 355 352 350 349 324 291 26 343 325 272 262 149 34 21 334 322 292 333 319 338 324 330 291 41 346 6 317 315 288 302 32 260 228 245 356 253 202 267 276
25 25 20 16 11 8 3 359 355 354 349 332 290 282 13 342 273 252 331 19 7 6 3 346 337 302 318 322 317 298 323 57 1 349 322 327 259 278 278 233 279 212 226 223 301 272 279
23 27 19 16 12 10 4 360 359 355 347 336 312 311 4 334 22 12 24 7 355 347 10 358 3 344 327 331 308 293 338 28 13 345 332 332 303 281 273 278 295 278 278 282 266 264 225
28 18 19 16 10 10 5 2 358 355 0 318 355 342 13 330 15 26 40 12 35 4 17 1 14 10 354 299 301 341 327 167 3 346 357 340 272 303 289 158 137 233 327 267 283 299 262
20 20 17 16 10 10 10 6 358 353 357 320 326 339 27 53 45 345 348 9 350 57 48 1 0 340 344 318 277 296 299 334 334 323 320 261 254 258 265 282 314 297 287 275 285 271 269
22 13 19 13 16 11 8 5 4 355 352 308 6 54 21 347 22 348 341 345 349 355 4 354 203 31 353 300 309 274 320 317 309 316 290 334 276 280 284 286 289 285 280 276 267 264 257
19 17 13 10 15 11 12 9 9 2 348 58 20 350 340 328 316 318 352 28 349 351 304 3 337 337 319 292 285 296 309 303 289 295 311 331 280 308 287 278 266 268 268 267 267 271 270
15 13 5 10 8 13 10 6 15 12 1 48 36 119 311 38 333 326 23 353 338 339 323 291 319 314 304 323 323 301 285 277 271 278 283 286 278 306 275 359 316 279 267 283 276 263 270
7 7 5 4 8 6 1 4 5 28 21 32 32 306 323 319 323 348 305 315 310 321 295 300 307 306 312 327 302 280 268 257 254 257 250 253 259 258 283 284 252 20 328 312 303 349 6
8 357 353 2 0 353 356 356 358 1 16 4 23 352 354 304 319 284 328 314 311 310 295 299 300 307 316 309 295 314 306 219 183 246 250 230 245 268 265 278 295 300 346 21 25 337 35
349 352 348 350 342 352 347 344 348 346 349 326 339 277 284 288 87 317 304 300 303 314 308 311 317 324 306 289 287 286 297 307 274 334 353 206 220 244 287 288 275 295 353 309 311 292 144
346 338 339 335 338 342 339 341 338 337 345 309 247 201 260 282 291 338 290 311 313 287 297 309 357 302 295 271 289 289 289 300 274 274 282 260 250 268 274 276 276 292 300 300 271 301 331
327 330 336 338 334 331 333 334 329 338 354 338 314 180 254 250 289 290 276 286 292 280 285 306 308 229 270 264 282 294 283 289 294 289 293 287 287 278 279 278 283 290 295 310 316 312 314
327 332 328 324 325 321 319 319 325 322 333 338 283 142 253 254 279 292 281 277 272 274 278 270 268 286 296 279 264 293 287 292 288 277 276 268 269 279 273 275 295 305 307 305 300 295 298